Mattoon, IL

12:05 AM CDT on August 18, 2019 (GMT -0500)
Coles County Memorial

Weather History for KMTO - July, 2019

Change the Weather History Date:

Tuesday, July 23, 2019

  Actual Average Record
Temperature  
Mean Temperature 68 °F 76 °F  
Max Temperature 82 °F 86 °F 102 °F (2012)
Min Temperature 53 °F 65 °F 53 °F (1985)
Degree Days  
Heating Degree Days 0 0  
Month to date heating degree days 0 0  
Since 1 June heating degree days 4 17  
Since 1 July heating degree days 0 0  
Cooling Degree Days 3 11  
Month to date cooling degree days 308 251  
Year to date cooling degree days 649 562  
Since 1 June cooling degree days 524 474  
Growing Degree Days 17 (Base 50)    
Moisture  
Dew Point 54 °F    
Average Humidity 64    
Maximum Humidity 89    
Minimum Humidity 39    
Precipitation  
Precipitation 0.00 in 0.15 in 1.14 in (1956)
Month to date precipitation 2.48 3.37  
Year to date precipitation 20.68 21.96  
Sea Level Pressure  
Sea Level Pressure 30.09 in    
Wind  
Wind Speed 9 mph (NNW)    
Max Wind Speed 20 mph    
Max Gust Speed 26 mph    
Visibility 10 miles    
Events      
T = Trace of Precipitation, MM = Missing Value Source: NWS Daily Summary

Daily Weather History Graph

Daily Weather History Graph

Search for Another Location

Airport or City:

Astronomy

Jul. 23, 2019 Rise Set
Actual Time 5:44 AM CDT 8:14 PM CDT
Civil Twilight 5:13 AM CDT 8:44 PM CDT
Nautical Twilight 4:35 AM CDT 9:22 PM CDT
Astronomical Twilight 3:52 AM CDT 10:05 PM CDT
Moon No Moon Rise 11:56 AM CDT (7/23)
Length of Visible Light 15h 31m
Length of Day
14h 29m
Waning Gibbous, 63% of the Moon is Illuminated
Jul 23
Waning Gibbous
Jul 24
Last Quarter
Jul 31
New
Aug 7
First Quarter
Aug 15
Full

Hourly Weather History & Observations

Time (CDT) Temp. Heat Index Dew Point Humidity Pressure Visibility Wind Dir Wind Speed Gust Speed Precip Events Conditions
12:53 AM 57.0 °F - 52.0 °F 83% 30.09 in 10.0 mi NNW 5.8 mph - N/A   Clear
1:53 AM 55.9 °F - 51.1 °F 84% 30.09 in 10.0 mi NNW 5.8 mph - N/A   Clear
2:53 AM 55.9 °F - 51.1 °F 84% 30.09 in 10.0 mi NNW 4.6 mph - N/A   Clear
3:53 AM 55.0 °F - 51.1 °F 86% 30.09 in 10.0 mi NW 8.1 mph - N/A   Clear
4:53 AM 53.1 °F - 50.0 °F 89% 30.09 in 10.0 mi NW 6.9 mph - N/A   Clear
5:53 AM 54.0 °F - 50.0 °F 86% 30.10 in 10.0 mi NW 6.9 mph - N/A   Clear
6:53 AM 57.0 °F - 53.1 °F 87% 30.12 in 10.0 mi NW 5.8 mph - N/A   Clear
7:53 AM 63.0 °F - 55.9 °F 78% 30.13 in 10.0 mi NNW 8.1 mph - N/A   Clear
8:53 AM 69.1 °F - 55.9 °F 63% 30.13 in 10.0 mi North 9.2 mph - N/A   Clear
9:53 AM 73.9 °F - 54.0 °F 50% 30.13 in 10.0 mi NNW 11.5 mph - N/A   Clear
10:53 AM 77.0 °F - 50.0 °F 39% 30.12 in 10.0 mi NNW 11.5 mph - N/A   Clear
11:53 AM 80.1 °F 80.0 °F 54.0 °F 40% 30.12 in 10.0 mi North 11.5 mph 20.7 mph N/A   Partly Cloudy
12:53 PM 80.1 °F 79.9 °F 53.1 °F 39% 30.11 in 10.0 mi North 13.8 mph 23.0 mph N/A   Partly Cloudy
1:53 PM 81.0 °F 80.4 °F 53.1 °F 38% 30.10 in 10.0 mi NNW 15.0 mph 24.2 mph N/A   Scattered Clouds
2:53 PM 80.1 °F 80.0 °F 54.0 °F 40% 30.08 in 10.0 mi NNW 9.2 mph 20.7 mph N/A   Mostly Cloudy
3:53 PM 81.0 °F 80.5 °F 54.0 °F 39% 30.06 in 10.0 mi NNW 15.0 mph 25.3 mph N/A   Scattered Clouds
4:53 PM 80.1 °F 80.1 °F 55.0 °F 42% 30.06 in 10.0 mi NNW 11.5 mph - N/A   Partly Cloudy
5:53 PM 80.1 °F 80.2 °F 55.9 °F 43% 30.05 in 10.0 mi NNW 12.7 mph - N/A   Scattered Clouds
6:53 PM 79.0 °F - 57.0 °F 47% 30.05 in 10.0 mi North 11.5 mph - N/A   Partly Cloudy
7:53 PM 73.9 °F - 57.0 °F 55% 30.06 in 10.0 mi NNW 9.2 mph - N/A   Clear
8:53 PM 69.1 °F - 57.0 °F 65% 30.07 in 10.0 mi NNW 6.9 mph - N/A   Clear
9:53 PM 66.0 °F - 57.0 °F 73% 30.09 in 10.0 mi NW 5.8 mph - N/A   Partly Cloudy
10:53 PM 64.9 °F - 57.0 °F 75% 30.10 in 10.0 mi NNE 3.5 mph - N/A   Clear
11:53 PM 64.0 °F - 57.0 °F 78% 30.11 in 10.0 mi Calm Calm - N/A   Clear